Regional Weather Roundup
Issued by NWS

Home | Current Version | Previous Version | Graphics & Text | Print | Product List | Glossary On
Versions: 1 2 3 4 5 6 7 8 9 10 11 12 13 14 15 16 17 18 19 20 21 22 23 24 25 26 27 28 29 30 31 32 33 34 35 36 37 38 39 40 41 42 43 44 45 46 47 48 49 50
000
ASUS44 KMEG 250800
RWRTN
TENNESSEE HOURLY STATE WEATHER ROUNDUP
NATIONAL WEATHER SERVICE MEMPHIS TN
300 AM CDT FRI JUL 25 2014

TNZ002-004-019-021-049-052-054-088>092-250900-
WEST TENNESSEE

CITY           SKY/WX    TMP DP  RH WIND       PRES   REMARKS
MEMPHIS INTL   CLEAR     68  60  75 CALM      30.01F
NWS MEMPHIS      N/A     64 N/A N/A MISG        N/A
JACKSON        CLEAR     61  58  90 CALM      30.01F
DYERSBURG      CLEAR     63  52  67 CALM      30.04R
UNION CITY     CLEAR     59  59 100 CALM      30.03R
PARIS          CLEAR     57  55  94 N3        30.04R
LEXINGTON      CLEAR     61  59  94 CALM      30.00S
SAVANNAH       CLEAR     61  61 100 CALM      30.01S
$$

TNZ008-025-027-028-033-062-065-066-250900-
NORTH MIDDLE TENNESSEE

CITY           SKY/WX    TMP DP  RH WIND       PRES   REMARKS
NASHVILLE      CLEAR     66  58  75 NE3       30.03S
CLARKSVILLE    CLEAR     58  55  90 CALM      30.03S
COOKEVILLE     CLEAR     57  57 100 CALM      30.03F
CROSSVILLE     CLEAR     60  57  89 NE5       30.06F FOG
$$

TNZ061-075-076-078-094-096-097-250900-
SOUTH MIDDLE TENNESSEE

CITY           SKY/WX    TMP DP  RH WIND       PRES   REMARKS
FAYETTEVILLE   CLEAR     64  63  94 NE9       30.02S
TULLAHOMA      CLEAR     64  63  94 CALM      30.04S
WINCHESTER     CLEAR     63  63 100 CALM      30.03S
MCMINNVILLE    CLEAR     63  63 100 CALM      30.03F
COLUMBIA       CLEAR     63  63 100 CALM      30.00F
SHELBYVILLE    CLEAR     63  63 100 CALM      30.03F
$$

TNZ017-018-042-046-047-250900-
NORTHEAST TENNESSEE

CITY           SKY/WX    TMP DP  RH WIND       PRES   REMARKS
TRI CITIES     PTCLDY    61  58  90 CALM      30.04F
ELIZABETHTON   PTSUNNY   63  63 100 E3        30.01F
$$

TNZ012-013-036-069-073-074-250900-
CENTRAL EAST TENNESSEE

CITY           SKY/WX    TMP DP  RH WIND       PRES   REMARKS
KNOXVILLE      CLEAR     64  63  96 N6        30.01F
OAK RIDGE      MOCLDY    63  61  93 CALM      30.05R
GATLINBURG     MOSUNNY   64  61  88 CALM      30.01S
$$

TNZ083-085-099-250900-
SOUTHEAST TENNESSEE

CITY           SKY/WX    TMP DP  RH WIND       PRES   REMARKS
CHATTANOOGA    CLEAR     68  63  84 NW5       30.01F
$$

SKY/WX REPORTED AS FAIR MEANS FEW OR NO CLOUDS BELOW
12 THOUSAND FEET.




USA.gov is the U.S. government's official web portal to all federal, state and local government web resources and services.